Location: Pereveciori
(45.6333°N, 22.6000°E)
Time: 01:23:07
(UTC+00:00)

Daily predictions for brighter satellites

Satellite Brightness Start Highest point End
(mag) Time Altitude Azimuth Time Altitude Azimuth Time Altitude Azimuth
ATLAS 3B R/B 4.3 01:54:41 28° NNE 01:54:41 28° NNE 01:58:02 10° NE
CENTAUR R/B 4.3 02:17:29 30° N 02:19:31 34° NNE 02:27:24 10° E
COSMOS 2428 4.1 02:22:22 36° E 02:22:22 36° E 02:26:46 10° NE
Cosmos 2333 Rocket 4.4 02:26:52 17° NNE 02:26:52 17° NNE 02:28:09 10° NNE
Cosmos 2278 Rocket 3.7 02:29:25 29° NE 02:29:55 30° NE 02:34:49 10° ESE
BREEZE-M DEB (TANK) 4.3 02:34:08 40° SSE 02:34:08 40° SSE 02:41:41 10° SE
Cosmos 2322 4.4 02:52:59 48° NE 02:52:59 48° NE 02:57:01 10° NNE
USA 267 4.2 02:48:16 10° ENE 02:53:59 33° N 02:54:28 33° N
Lacrosse 5 rocket 3.5 03:00:36 22° NE 03:00:36 22° NE 03:02:13 10° NE
Cosmos 2219 Rocket 3.4 03:10:32 30° N 03:10:32 30° N 03:13:29 10° NNE
Cosmos 2360 Rocket 4.2 03:11:51 16° N 03:11:51 16° N 03:13:06 10° N
Cosmos 1943 Rocket 3.8 03:05:26 19° N 03:08:15 29° NE 03:13:01 10° ESE
USA 229 DEB 3.5 03:12:15 67° NW 03:12:15 67° NW 03:18:52 10° NE
USA 229 3.4 03:12:16 68° NW 03:12:16 68° NW 03:18:55 10° NE
Meteor 2-3 Rocket 3.6 03:06:38 10° S 03:12:12 84° E 03:17:50 10° NNE
USA 281 3.9 03:08:31 10° NNE 03:14:56 53° ESE 03:21:18 10° S
BREEZE-M R/B 4.4 03:15:08 52° SW 03:15:15 52° SW 03:20:11 10° SSE
NOSS 3-1 (A) 4.5 03:23:18 28° N 03:23:18 28° N 03:27:31 10° NNE
Cosmos 1110 Rocket 3.9 03:23:04 73° NNW 03:23:38 89° ENE 03:28:55 10° SSE
IRS-1C 4.0 03:21:59 10° NNE 03:27:21 87° ESE 03:32:42 10° SSW
Cosmos 2322 Rocket 4.3 03:35:08 12° N 03:35:08 12° N 03:35:55 10° N
ATLAS 5 CENTAUR R/B 4.0 03:30:44 10° SSE 03:32:48 15° ESE 03:34:57 10° ENE
Cosmos 1302 Rocket 4.5 03:39:08 21° N 03:42:34 58° ENE 03:47:42 10° SE
ATLAS 3B R/B 3.9 03:41:57 26° NNW 03:42:40 26° NNW 03:48:55 10° NNE
ERS-1 4.3 03:38:04 10° NNE 03:43:02 82° WNW 03:48:00 10° SSW
CZ-4C R/B 3.6 03:38:51 21° NNW 03:43:36 51° NE 03:51:49 10° ESE
CZ-2D R/B 3.2 03:40:45 10° NNE 03:44:41 85° ESE 03:48:38 10° SSW
Cosmos 1500 4.2 03:42:41 10° SSE 03:46:02 42° E 03:49:25 10° NNE
COSMO-SKYMED 1 2.4 03:42:15 10° SSE 03:46:35 83° WSW 03:47:54 45° NNW
Cosmos 2369 Rocket 4.5 03:44:10 10° N 03:48:02 18° NE 03:51:53 10° E
Cosmos 1437 Rocket 3.1 03:44:49 10° S 03:48:26 59° E 03:52:04 10° NNE
H-2A R/B 1.8 03:45:13 10° N 03:50:06 64° WNW 03:55:03 10° SSW
ARGOS 3.6 03:45:57 10° NNE 03:51:18 62° ESE 03:56:35 10° S
NOSS 0 Rocket 3.8 03:45:16 10° SSW 03:51:32 82° WNW 03:57:49 10° NNE
Cosmos 2034 Rocket 4.4 03:49:06 10° SW 03:54:58 39° WNW 04:00:49 10° N
Cosmos 1980 3.7 03:50:34 10° SSW 03:56:13 86° ESE 04:01:56 10° NNE
IRS-P3 4.0 03:53:26 10° N 03:58:42 63° WNW 04:03:57 10° SSW
Cosmos 1842 Rocket 3.7 03:54:46 12° N 03:58:52 74° E 04:03:19 10° SSE
Cosmos 1452 Rocket 4.0 04:02:24 37° W 04:02:51 37° WSW 04:07:38 10° SSW
Meteor 2-6 Rocket 4.2 03:57:21 10° N 04:03:08 85° E 04:08:42 10° S
COSMOS 2428 3.2 04:04:27 34° W 04:05:46 38° NW 04:11:06 10° NNE
Cosmos 2026 Rocket 4.2 03:59:49 10° NNW 04:05:53 49° W 04:11:54 10° SSW
ARIANE 5 R/B 2.7 04:01:19 10° N 04:06:19 47° WNW 04:11:18 10° SW
Geosat 4.2 04:01:28 10° NNE 04:06:31 74° ESE 04:11:31 10° SSW
CZ-2D R/B 4.3 04:02:59 10° NNE 04:06:31 44° E 04:10:02 10° S
Helios 1A 4.4 04:03:35 10° SSW 04:05:34 22° SW 04:05:34 22° SW
Cosmos 1076 Rocket 3.5 04:02:54 10° S 04:07:13 86° E 04:11:35 10° N
Cosmos 2333 Rocket 3.9 04:08:53 16° NNW 04:08:53 16° NNW 04:11:17 10° N
FengYun 1-2 T 4.1 04:03:32 10° NNE 04:09:09 81° WNW 04:14:41 10° SSW
CENTAUR R/B 3.3 04:04:39 18° NW 04:11:21 87° NE 04:20:33 10° SE
Cosmos 2278 Rocket 2.4 04:11:18 26° NW 04:14:15 50° WSW 04:19:41 10° S
Cosmos 2221 3.0 04:14:15 35° W 04:14:36 36° W 04:18:30 10° SSW
Cosmos 2266 Rocket 4.4 04:10:42 10° N 04:16:44 63° ENE 04:22:50 10° SSE
GENESIS II 4.1 04:15:47 23° SW 04:18:01 63° NW 04:21:53 10° NNE
CZ-2C R/B 4.0 04:15:27 10° NNE 04:19:05 43° E 04:22:44 10° S
NOSS 3-2 (A) 4.2 04:13:18 16° NW 04:19:36 80° NE 04:28:21 10° SE
Cosmos 2237 Rocket 2.1 04:15:01 10° SW 04:20:39 67° WNW 04:26:18 10° NNE
SeaSat 1 4.3 04:19:55 10° E 04:23:50 25° NE 04:27:47 10° N
Cosmos 2180 Rocket 4.5 04:20:02 10° S 04:26:21 85° W 04:32:48 10° N
SL-08 R/B 3.6 04:23:36 10° S 04:28:01 42° W 04:31:40 14° NNW
Helios 1B rocket 2.5 04:24:03 10° NNE 04:28:03 74° ESE 04:32:01 10° S
Cosmos 1378 3.1 04:29:40 21° NNW 04:31:39 46° W 04:34:58 10° SSW
USA 267 3.8 04:29:54 10° E 04:36:11 51° NNE 04:41:48 13° NW
Spot 4 Rocket 4.0 04:31:55 10° N 04:36:59 59° WNW 04:42:02 10° SSW
Lacrosse 5 rocket 2.8 04:35:42 19° NW 04:37:10 23° NNW 04:40:41 10° NE
Cosmos 2151 3.5 04:35:03 10° SW 04:38:54 35° WNW 04:42:49 10° N
Cosmos 2297 4.5 04:34:47 10° NNW 04:40:18 50° ENE 04:45:45 10° SE
Cosmos 1461 2.9 04:40:21 10° SW 04:44:48 69° NW 04:49:10 10° NNE
Cosmos 1151 Rocket 3.9 04:43:15 10° N 04:47:30 52° ENE 04:51:44 10° SSE
Cosmos 1666 2.9 04:47:06 10° SW 04:50:24 37° WNW 04:53:44 10° N
PSLV R/B 3.9 04:46:41 10° N 04:50:42 40° WNW 04:54:41 10° SW
Cosmos 1943 Rocket 2.4 04:46:58 10° NW 04:52:13 49° WSW 04:57:29 10° S
Cosmos 2219 Rocket 3.9 04:52:17 12° NW 04:53:14 12° NW 04:55:36 10° NNW
BREEZE-M DEB (TANK) 3.4 04:45:24 10° WSW 04:55:48 74° NNW 04:58:36 10° ENE
Meteor 1-31 Rocket 2.9 04:54:25 10° NNE 04:58:14 76° ESE 05:02:01 10° S
Cosmos 1269 Rocket 4.0 04:53:43 10° SSW 04:58:59 83° WNW 05:04:18 10° NNE
Cosmos 2279 Rocket 4.5 04:53:23 10° SW 04:59:07 37° WNW 05:04:55 10° N
USA 281 3.7 04:53:20 10° NNE 04:59:12 36° NW 05:05:04 10° WSW
Meteor 1-10 Rocket 4.4 04:53:52 10° NNW 04:59:33 56° W 05:05:05 10° S
Meteor 1-27 Rocket 3.6 04:59:39 10° NNW 05:05:11 77° W 05:10:41 10° S
ERS-2 2.4 05:02:40 10° N 05:05:14 28° WNW 05:07:47 10° SW
Meteor 1-20 Rocket 4.1 05:03:11 10° SSW 05:08:39 81° WNW 05:14:09 10° N
SMAP 3.0 05:05:45 10° N 05:10:25 75° WNW 05:15:03 10° SSW
NOSS 2-1 (E) 3.9 05:08:14 10° SSW 05:11:31 48° SE 05:14:29 10° NE
Okean 1 3.1 05:10:33 10° NNW 05:14:23 74° W 05:18:11 10° S
AQUARIUS 4.1 05:10:49 10° NNE 05:15:18 83° WNW 05:19:46 10° SSW
ATLAS 5 CENTAUR R/B 1.4 05:13:06 10° WSW 05:16:22 42° NW 05:20:03 10° NNE
SL-16 R/B 2.2 05:14:00 10° SSW 05:19:40 72° WNW 05:25:23 10° NNE
CZ-4C R/B 3.5 05:15:30 10° SSE 05:19:41 81° WSW 05:23:56 10° NNW
CORIOLIS 4.2 05:14:18 10° N 05:19:44 74° WNW 05:25:09 10° SSW
Cosmos 1328 Rocket 4.4 05:15:48 10° N 05:20:10 54° ENE 05:24:30 10° SSE
Cosmos 2084 Rocket 4.0 05:16:18 10° SSW 05:20:28 61° SE 05:24:28 10° NE
CZ-3 R/B 4.0 05:19:23 10° WSW 05:26:50 17° SW 05:31:02 10° S
